This is the latest recevied weather packets stored in our database for station/object OK0EK-11. If no packets are shown the sender has not sent any weather packets the latest 10 day(s).
| Time | Temp. | Humidity | Pressure | Rain* | Wind** | Luminosity | Snow |
|---|---|---|---|---|---|---|---|
| 1778338864 | 7.22° C | 76% | 1020.3 hPa | - | - | - | - |
| 1778338265 | 7.78° C | 75% | 1020.2 hPa | - | - | - | - |
| 1778337666 | 8.33° C | 71% | 1020.2 hPa | - | - | - | - |
| 1778337066 | 8.33° C | 72% | 1020.1 hPa | - | - | - | - |
| 1778336468 | 7.78° C | 74% | 1020.3 hPa | - | - | - | - |
| 1778335868 | 7.78° C | 75% | 1020 hPa | - | - | - | - |
| 1778335270 | 7.22° C | 76% | 1020.1 hPa | - | - | - | - |
| 1778334672 | 7.22° C | 74% | 1020.3 hPa | - | - | - | - |
| 1778334073 | 7.78° C | 74% | 1020.5 hPa | - | - | - | - |
| 1778333473 | 7.78° C | 74% | 1020.4 hPa | - | - | - | - |
| 1778332874 | 7.78° C | 74% | 1020.2 hPa | - | - | - | - |
| 1778332282 | 7.78° C | 75% | 1020.5 hPa | - | - | - | - |
| 1778332275 | 7.78° C | 75% | 1020.5 hPa | - | - | - | - |
| 1778331676 | 7.78° C | 74% | 1020.3 hPa | - | - | - | - |
| 1778331076 | 7.78° C | 74% | 1020.5 hPa | - | - | - | - |
| 1778330477 | 7.78° C | 74% | 1020.5 hPa | - | - | - | - |
| 1778329878 | 7.78° C | 75% | 1020.5 hPa | - | - | - | - |
| 1778329278 | 7.78° C | 74% | 1020.5 hPa | - | - | - | - |
| 1778328678 | 7.22° C | 76% | 1020.8 hPa | - | - | - | - |
| 1778328079 | 6.67° C | 78% | 1020.8 hPa | - | - | - | - |
| 1778327480 | 7.22° C | 77% | 1020.9 hPa | - | - | - | - |
| 1778326880 | 7.22° C | 75% | 1020.8 hPa | - | - | - | - |
| 1778326280 | 7.22° C | 77% | 1020.9 hPa | - | - | - | - |
| 1778325680 | 7.22° C | 77% | 1020.9 hPa | - | - | - | - |
| 1778325081 | 6.67° C | 78% | 1020.8 hPa | - | - | - | - |
* Rain since midnight (hover to see other rain measurements)
** Current wind speed in m/s (hover to see current wind gust speed)